Time,TemperatureF,DewpointF,PressureIn,WindDirection,WindDirectionDegrees,WindSpeedMPH,WindSpeedGustMPH,Humidity,HourlyPrecipIn,Conditions,Clouds,dailyrainin,SoftwareType,DateUTC
2013-08-14 00:01:00,61.2,54.0,29.62,North,0,0.0,0.0,77,0.00,,,0.00,WUHU216HW,2013-08-14 07:01:00,
2013-08-14 00:06:00,61.0,53.8,29.62,North,0,0.0,0.0,77,0.00,,,0.00,WUHU216HW,2013-08-14 07:06:00,
2013-08-14 00:11:00,61.0,53.8,29.62,North,0,0.0,0.0,77,0.00,,,0.00,WUHU216HW,2013-08-14 07:11:00,
2013-08-14 00:16:00,60.8,53.6,29.63,North,0,0.0,0.0,77,0.00,,,0.00,WUHU216HW,2013-08-14 07:16:00,
2013-08-14 00:21:00,60.8,53.6,29.63,North,0,0.0,0.0,77,0.00,,,0.00,WUHU216HW,2013-08-14 07:21:00,
2013-08-14 00:26:00,60.8,53.6,29.63,North,0,0.0,0.0,77,0.00,,,0.00,WUHU216HW,2013-08-14 07:26:00,
2013-08-14 00:31:00,60.7,53.5,29.63,North,0,0.0,0.0,77,0.00,,,0.00,WUHU216HW,2013-08-14 07:31:00,
2013-08-14 00:36:00,60.5,53.3,29.63,North,0,0.0,0.0,77,0.00,,,0.00,WUHU216HW,2013-08-14 07:36:00,
2013-08-14 00:41:00,60.3,53.1,29.63,North,0,0.0,0.0,77,0.00,,,0.00,WUHU216HW,2013-08-14 07:41:00,
2013-08-14 00:46:00,60.1,52.9,29.63,North,0,0.0,0.0,77,0.00,,,0.00,WUHU216HW,2013-08-14 07:46:00,
2013-08-14 00:51:00,60.1,53.3,29.63,North,0,0.0,0.0,78,0.00,,,0.00,WUHU216HW,2013-08-14 07:51:00,
2013-08-14 00:56:00,59.9,53.1,29.63,North,0,0.0,0.0,78,0.00,,,0.00,WUHU216HW,2013-08-14 07:56:00,
2013-08-14 01:01:00,59.9,53.5,29.63,North,0,0.0,0.0,79,0.00,,,0.00,WUHU216HW,2013-08-14 08:01:00,
2013-08-14 01:06:00,59.8,52.9,29.62,North,0,0.0,0.0,78,0.00,,,0.00,WUHU216HW,2013-08-14 08:06:00,
2013-08-14 01:11:00,59.6,52.7,29.63,North,0,0.0,0.0,78,0.00,,,0.00,WUHU216HW,2013-08-14 08:11:00,
2013-08-14 01:16:00,59.4,52.9,29.63,North,0,0.0,0.0,79,0.00,,,0.00,WUHU216HW,2013-08-14 08:16:00,
2013-08-14 01:21:00,59.4,52.9,29.63,North,0,0.0,0.0,79,0.00,,,0.00,WUHU216HW,2013-08-14 08:21:00,
2013-08-14 01:26:00,59.4,52.9,29.62,North,0,0.0,0.0,79,0.00,,,0.00,WUHU216HW,2013-08-14 08:26:00,
2013-08-14 01:31:00,59.2,52.7,29.63,North,0,0.0,0.0,79,0.00,,,0.00,WUHU216HW,2013-08-14 08:31:00,
2013-08-14 01:36:00,59.2,52.7,29.63,North,0,0.0,0.0,79,0.00,,,0.00,WUHU216HW,2013-08-14 08:36:00,
2013-08-14 01:41:00,59.0,52.6,29.63,North,0,0.0,0.0,79,0.00,,,0.00,WUHU216HW,2013-08-14 08:41:00,
2013-08-14 01:46:00,59.0,52.6,29.62,North,0,0.0,0.0,79,0.00,,,0.00,WUHU216HW,2013-08-14 08:46:00,
2013-08-14 01:51:00,58.9,52.7,29.62,North,0,0.0,0.0,80,0.00,,,0.00,WUHU216HW,2013-08-14 08:51:00,
2013-08-14 01:56:00,58.7,52.6,29.62,North,0,0.0,0.0,80,0.00,,,0.00,WUHU216HW,2013-08-14 08:56:00,
2013-08-14 02:01:00,58.7,52.6,29.62,North,0,0.0,0.0,80,0.00,,,0.00,WUHU216HW,2013-08-14 09:01:00,
2013-08-14 02:06:00,58.7,52.6,29.63,North,0,0.0,0.0,80,0.00,,,0.00,WUHU216HW,2013-08-14 09:06:00,
2013-08-14 02:11:00,58.5,52.4,29.62,North,0,0.0,0.0,80,0.00,,,0.00,WUHU216HW,2013-08-14 09:11:00,
2013-08-14 02:16:00,58.5,52.4,29.63,North,0,0.0,0.0,80,0.00,,,0.00,WUHU216HW,2013-08-14 09:16:00,
2013-08-14 02:21:00,58.5,52.4,29.62,North,0,0.0,0.0,80,0.00,,,0.00,WUHU216HW,2013-08-14 09:21:00,
2013-08-14 02:26:00,58.3,52.2,29.62,North,0,0.0,0.0,80,0.00,,,0.00,WUHU216HW,2013-08-14 09:26:00,
2013-08-14 02:31:00,58.3,52.2,29.63,North,0,0.0,0.0,80,0.00,,,0.00,WUHU216HW,2013-08-14 09:31:00,
2013-08-14 02:36:00,58.1,52.0,29.63,North,0,0.0,0.0,80,0.00,,,0.00,WUHU216HW,2013-08-14 09:36:00,
2013-08-14 02:41:00,58.1,52.4,29.63,North,0,0.0,0.0,81,0.00,,,0.00,WUHU216HW,2013-08-14 09:41:00,
2013-08-14 02:46:00,58.0,52.2,29.63,North,0,0.0,0.0,81,0.00,,,0.00,WUHU216HW,2013-08-14 09:46:00,
2013-08-14 02:51:00,58.0,52.5,29.63,North,0,0.0,0.0,82,0.00,,,0.00,WUHU216HW,2013-08-14 09:51:00,
2013-08-14 02:56:00,57.8,52.3,29.63,North,0,0.0,0.0,82,0.00,,,0.00,WUHU216HW,2013-08-14 09:56:00,
2013-08-14 03:01:00,57.6,52.5,29.63,North,0,0.0,0.0,83,0.00,,,0.00,WUHU216HW,2013-08-14 10:01:00,
2013-08-14 03:06:00,57.4,52.3,29.62,North,0,0.0,0.0,83,0.00,,,0.00,WUHU216HW,2013-08-14 10:06:00,
2013-08-14 03:11:00,57.2,52.1,29.63,North,0,0.0,0.0,83,0.00,,,0.00,WUHU216HW,2013-08-14 10:11:00,
2013-08-14 03:16:00,57.2,51.8,29.63,North,0,0.0,0.0,82,0.00,,,0.00,WUHU216HW,2013-08-14 10:16:00,
2013-08-14 03:21:00,57.2,52.1,29.62,North,0,0.0,0.0,83,0.00,,,0.00,WUHU216HW,2013-08-14 10:21:00,
2013-08-14 03:26:00,57.2,51.8,29.62,North,0,0.0,0.0,82,0.00,,,0.00,WUHU216HW,2013-08-14 10:26:00,
2013-08-14 03:31:00,57.2,51.8,29.63,North,0,0.0,0.0,82,0.00,,,0.00,WUHU216HW,2013-08-14 10:31:00,
2013-08-14 03:36:00,57.1,51.6,29.62,North,0,0.0,0.0,82,0.00,,,0.00,WUHU216HW,2013-08-14 10:36:00,
2013-08-14 03:41:00,56.9,51.4,29.62,North,0,0.0,0.0,82,0.00,,,0.00,WUHU216HW,2013-08-14 10:41:00,
2013-08-14 03:46:00,56.9,51.4,29.62,North,0,0.0,0.0,82,0.00,,,0.00,WUHU216HW,2013-08-14 10:46:00,
2013-08-14 03:51:00,56.7,51.2,29.61,North,0,0.0,0.0,82,0.00,,,0.00,WUHU216HW,2013-08-14 10:51:00,
2013-08-14 03:56:00,56.7,51.6,29.61,North,0,0.0,0.0,83,0.00,,,0.00,WUHU216HW,2013-08-14 10:56:00,
2013-08-14 04:01:00,56.7,51.6,29.62,North,0,0.0,0.0,83,0.00,,,0.00,WUHU216HW,2013-08-14 11:01:00,
2013-08-14 04:06:00,56.5,51.4,29.62,North,0,0.0,0.0,83,0.00,,,0.00,WUHU216HW,2013-08-14 11:06:00,
2013-08-14 04:11:00,56.3,50.9,29.62,North,0,0.0,0.0,82,0.00,,,0.00,WUHU216HW,2013-08-14 11:11:00,
2013-08-14 04:16:00,56.3,50.9,29.62,North,0,0.0,0.0,82,0.00,,,0.00,WUHU216HW,2013-08-14 11:16:00,
2013-08-14 04:21:00,56.3,50.9,29.62,North,0,0.0,0.0,82,0.00,,,0.00,WUHU216HW,2013-08-14 11:21:00,
2013-08-14 04:26:00,56.2,50.7,29.63,North,0,0.0,0.0,82,0.00,,,0.00,WUHU216HW,2013-08-14 11:26:00,
2013-08-14 04:31:00,56.0,50.5,29.62,North,0,0.0,0.0,82,0.00,,,0.00,WUHU216HW,2013-08-14 11:31:00,
2013-08-14 04:36:00,56.0,50.5,29.62,North,0,0.0,0.0,82,0.00,,,0.00,WUHU216HW,2013-08-14 11:36:00,
2013-08-14 04:41:00,56.0,50.5,29.62,North,0,0.0,0.0,82,0.00,,,0.00,WUHU216HW,2013-08-14 11:41:00,
2013-08-14 04:46:00,55.8,50.7,29.62,North,0,0.0,0.0,83,0.00,,,0.00,WUHU216HW,2013-08-14 11:46:00,
2013-08-14 04:51:00,55.8,50.7,29.62,North,0,0.0,0.0,83,0.00,,,0.00,WUHU216HW,2013-08-14 11:51:00,
2013-08-14 04:56:00,55.8,50.7,29.62,North,0,0.0,0.0,83,0.00,,,0.00,WUHU216HW,2013-08-14 11:56:00,
2013-08-14 05:01:00,55.6,50.5,29.61,North,0,0.0,0.0,83,0.00,,,0.00,WUHU216HW,2013-08-14 12:01:00,
2013-08-14 05:06:00,55.6,50.5,29.62,North,0,0.0,0.0,83,0.00,,,0.00,WUHU216HW,2013-08-14 12:06:00,
2013-08-14 05:11:00,55.4,50.3,29.62,North,0,0.0,0.0,83,0.00,,,0.00,WUHU216HW,2013-08-14 12:11:00,
2013-08-14 05:16:00,55.3,50.1,29.62,North,0,0.0,0.0,83,0.00,,,0.00,WUHU216HW,2013-08-14 12:16:00,
2013-08-14 05:21:00,55.3,50.1,29.62,North,0,0.0,0.0,83,0.00,,,0.00,WUHU216HW,2013-08-14 12:21:00,
2013-08-14 05:26:00,55.1,50.0,29.62,North,0,0.0,0.0,83,0.00,,,0.00,WUHU216HW,2013-08-14 12:26:00,
2013-08-14 05:31:00,55.1,50.0,29.62,North,0,0.0,0.0,83,0.00,,,0.00,WUHU216HW,2013-08-14 12:31:00,
2013-08-14 05:36:00,55.1,50.0,29.61,North,0,0.0,0.0,83,0.00,,,0.00,WUHU216HW,2013-08-14 12:36:00,
2013-08-14 05:41:00,54.9,49.8,29.61,North,0,0.0,0.0,83,0.00,,,0.00,WUHU216HW,2013-08-14 12:41:00,
2013-08-14 05:46:00,54.9,49.8,29.62,North,0,0.0,0.0,83,0.00,,,0.00,WUHU216HW,2013-08-14 12:46:00,
2013-08-14 05:51:00,54.9,50.1,29.62,North,0,0.0,0.0,84,0.00,,,0.00,WUHU216HW,2013-08-14 12:51:00,
2013-08-14 05:56:00,55.1,50.3,29.62,North,0,0.0,0.0,84,0.00,,,0.00,WUHU216HW,2013-08-14 12:56:00,
2013-08-14 06:01:00,55.1,50.3,29.63,North,0,0.0,0.0,84,0.00,,,0.00,WUHU216HW,2013-08-14 13:01:00,
2013-08-14 06:06:00,54.9,50.1,29.63,North,0,0.0,0.0,84,0.00,,,0.00,WUHU216HW,2013-08-14 13:06:00,
2013-08-14 06:11:00,54.9,50.4,29.62,North,0,0.0,0.0,85,0.00,,,0.00,WUHU216HW,2013-08-14 13:11:00,
2013-08-14 06:16:00,54.9,50.8,29.62,North,0,0.0,0.0,86,0.00,,,0.00,WUHU216HW,2013-08-14 13:16:00,
2013-08-14 06:21:00,54.9,50.4,29.62,North,0,0.0,0.0,85,0.00,,,0.00,WUHU216HW,2013-08-14 13:21:00,
2013-08-14 06:26:00,54.9,50.8,29.63,North,0,0.0,0.0,86,0.00,,,0.00,WUHU216HW,2013-08-14 13:26:00,
2013-08-14 06:31:00,54.9,50.8,29.63,North,0,0.0,0.0,86,0.00,,,0.00,WUHU216HW,2013-08-14 13:31:00,
2013-08-14 06:36:00,55.1,51.0,29.63,North,0,0.0,0.0,86,0.00,,,0.00,WUHU216HW,2013-08-14 13:36:00,
2013-08-14 06:41:00,55.1,51.0,29.62,North,0,0.0,0.0,86,0.00,,,0.00,WUHU216HW,2013-08-14 13:41:00,
2013-08-14 06:46:00,55.3,51.1,29.62,North,0,0.0,0.0,86,0.00,,,0.00,WUHU216HW,2013-08-14 13:46:00,
2013-08-14 06:51:00,55.8,51.7,29.62,North,0,0.0,0.0,86,0.00,,,0.00,WUHU216HW,2013-08-14 13:51:00,
2013-08-14 06:56:00,56.0,51.9,29.62,North,0,0.0,0.0,86,0.00,,,0.00,WUHU216HW,2013-08-14 13:56:00,
2013-08-14 07:01:00,56.5,52.4,29.62,North,0,0.0,0.0,86,0.00,,,0.00,WUHU216HW,2013-08-14 14:01:00,
2013-08-14 07:06:00,56.9,52.8,29.62,North,0,0.0,0.0,86,0.00,,,0.00,WUHU216HW,2013-08-14 14:06:00,
2013-08-14 07:11:00,57.4,52.9,29.62,North,0,0.0,0.0,85,0.00,,,0.00,WUHU216HW,2013-08-14 14:11:00,
2013-08-14 07:16:00,57.8,53.7,29.62,North,0,0.0,0.0,86,0.00,,,0.00,WUHU216HW,2013-08-14 14:16:00,
2013-08-14 07:21:00,58.0,53.8,29.62,North,0,0.0,0.0,86,0.00,,,0.00,WUHU216HW,2013-08-14 14:21:00,
2013-08-14 07:26:00,58.3,54.2,29.62,North,0,0.0,0.0,86,0.00,,,0.00,WUHU216HW,2013-08-14 14:26:00,
2013-08-14 07:31:00,58.7,54.2,29.62,North,0,0.0,0.0,85,0.00,,,0.00,WUHU216HW,2013-08-14 14:31:00,
2013-08-14 07:36:00,58.9,54.4,29.62,North,0,0.0,0.0,85,0.00,,,0.00,WUHU216HW,2013-08-14 14:36:00,
2013-08-14 07:41:00,59.4,54.5,29.62,North,0,0.0,0.0,84,0.00,,,0.00,WUHU216HW,2013-08-14 14:41:00,
2013-08-14 07:46:00,59.6,54.7,29.62,North,0,0.0,0.0,84,0.00,,,0.00,WUHU216HW,2013-08-14 14:46:00,
2013-08-14 07:51:00,60.1,55.3,29.62,North,0,0.0,0.0,84,0.00,,,0.00,WUHU216HW,2013-08-14 14:51:00,
2013-08-14 07:56:00,60.7,55.5,29.62,North,0,0.0,0.0,83,0.00,,,0.00,WUHU216HW,2013-08-14 14:56:00,
2013-08-14 08:01:00,61.2,56.1,29.62,North,0,0.0,0.0,83,0.00,,,0.00,WUHU216HW,2013-08-14 15:01:00,
2013-08-14 08:06:00,61.7,56.2,29.63,North,0,0.0,0.0,82,0.00,,,0.00,WUHU216HW,2013-08-14 15:06:00,
2013-08-14 08:11:00,61.9,56.3,29.63,North,0,0.0,0.0,82,0.00,,,0.00,WUHU216HW,2013-08-14 15:11:00,
2013-08-14 08:16:00,62.3,56.3,29.62,North,0,0.0,0.0,81,0.00,,,0.00,WUHU216HW,2013-08-14 15:16:00,
2013-08-14 08:21:00,62.5,56.9,29.63,North,0,0.0,0.0,82,0.00,,,0.00,WUHU216HW,2013-08-14 15:21:00,
2013-08-14 08:26:00,63.2,57.3,29.63,North,0,0.0,0.0,81,0.00,,,0.00,WUHU216HW,2013-08-14 15:26:00,
2013-08-14 08:31:00,63.7,57.4,29.63,North,0,0.0,0.0,80,0.00,,,0.00,WUHU216HW,2013-08-14 15:31:00,
2013-08-14 08:36:00,64.1,57.8,29.63,North,0,0.0,0.0,80,0.00,,,0.00,WUHU216HW,2013-08-14 15:36:00,
2013-08-14 08:41:00,64.3,58.0,29.63,North,0,0.0,0.0,80,0.00,,,0.00,WUHU216HW,2013-08-14 15:41:00,
2013-08-14 08:46:00,64.4,58.1,29.63,North,0,0.0,0.0,80,0.00,,,0.00,WUHU216HW,2013-08-14 15:46:00,
2013-08-14 08:51:00,64.8,58.2,29.62,North,0,0.0,0.0,79,0.00,,,0.00,WUHU216HW,2013-08-14 15:51:00,
2013-08-14 08:56:00,65.0,58.3,29.62,North,0,0.0,0.0,79,0.00,,,0.00,WUHU216HW,2013-08-14 15:56:00,
2013-08-14 09:01:00,65.2,58.2,29.62,North,0,0.0,0.0,78,0.00,,,0.00,WUHU216HW,2013-08-14 16:01:00,
2013-08-14 09:06:00,65.7,58.7,29.62,North,0,0.0,0.0,78,0.00,,,0.00,WUHU216HW,2013-08-14 16:06:00,
2013-08-14 09:11:00,66.4,59.0,29.61,North,0,0.0,0.0,77,0.00,,,0.00,WUHU216HW,2013-08-14 16:11:00,
2013-08-14 09:16:00,67.0,59.5,29.61,North,0,0.0,0.0,77,0.00,,,0.00,WUHU216HW,2013-08-14 16:16:00,
2013-08-14 09:21:00,67.5,60.0,29.61,North,0,0.0,0.0,77,0.00,,,0.00,WUHU216HW,2013-08-14 16:21:00,
2013-08-14 09:27:00,68.0,60.2,29.61,North,0,0.0,0.0,76,0.00,,,0.00,WUHU216HW,2013-08-14 16:27:00,
2013-08-14 09:32:00,68.2,60.4,29.61,North,0,0.0,0.0,76,0.00,,,0.00,WUHU216HW,2013-08-14 16:32:00,
2013-08-14 09:37:00,68.6,60.3,29.61,North,0,0.0,0.0,75,0.00,,,0.00,WUHU216HW,2013-08-14 16:37:00,
2013-08-14 09:42:00,68.9,60.3,29.61,North,0,0.0,0.0,74,0.00,,,0.00,WUHU216HW,2013-08-14 16:42:00,
2013-08-14 09:47:00,69.3,61.0,29.61,North,0,0.0,0.0,75,0.00,,,0.00,WUHU216HW,2013-08-14 16:47:00,
2013-08-14 09:52:00,69.5,60.8,29.61,North,0,0.0,0.0,74,0.00,,,0.00,WUHU216HW,2013-08-14 16:52:00,
2013-08-14 09:57:00,69.8,60.8,29.61,North,0,0.0,0.0,73,0.00,,,0.00,WUHU216HW,2013-08-14 16:57:00,
2013-08-14 10:02:00,70.0,60.9,29.61,North,0,0.0,0.0,73,0.00,,,0.00,WUHU216HW,2013-08-14 17:02:00,
2013-08-14 10:07:00,70.4,61.3,29.61,North,0,0.0,0.0,73,0.00,,,0.00,WUHU216HW,2013-08-14 17:07:00,
2013-08-14 10:12:00,70.6,61.5,29.61,North,0,0.0,0.0,73,0.00,,,0.00,WUHU216HW,2013-08-14 17:12:00,
2013-08-14 10:17:00,70.9,61.8,29.60,North,0,0.0,0.0,73,0.00,,,0.00,WUHU216HW,2013-08-14 17:17:00,
2013-08-14 10:22:00,71.3,61.7,29.60,North,0,0.0,0.0,72,0.00,,,0.00,WUHU216HW,2013-08-14 17:22:00,
2013-08-14 10:27:00,71.3,61.4,29.60,North,0,0.0,0.0,71,0.00,,,0.00,WUHU216HW,2013-08-14 17:27:00,
2013-08-14 10:32:00,71.6,62.1,29.61,North,0,0.0,0.0,72,0.00,,,0.00,WUHU216HW,2013-08-14 17:32:00,
2013-08-14 10:37:00,72.2,62.6,29.61,North,0,0.0,0.0,72,0.00,,,0.00,WUHU216HW,2013-08-14 17:37:00,
2013-08-14 10:42:00,72.2,61.9,29.60,North,0,0.0,0.0,70,0.00,,,0.00,WUHU216HW,2013-08-14 17:42:00,
2013-08-14 10:47:00,72.2,62.3,29.60,North,0,0.0,0.0,71,0.00,,,0.00,WUHU216HW,2013-08-14 17:47:00,
2013-08-14 10:53:00,72.4,62.5,29.60,North,0,0.0,0.0,71,0.00,,,0.00,WUHU216HW,2013-08-14 17:53:00,
2013-08-14 10:58:00,72.7,62.8,29.61,North,0,0.0,0.0,71,0.00,,,0.00,WUHU216HW,2013-08-14 17:58:00,
2013-08-14 11:03:00,73.3,63.4,29.61,North,0,0.0,0.0,71,0.00,,,0.00,WUHU216HW,2013-08-14 18:03:00,
2013-08-14 11:08:00,74.0,64.1,29.61,North,0,0.0,0.0,71,0.00,,,0.00,WUHU216HW,2013-08-14 18:08:00,
2013-08-14 11:14:00,74.3,63.5,29.61,North,0,0.0,0.0,69,0.00,,,0.00,WUHU216HW,2013-08-14 18:14:00,
2013-08-14 11:19:00,74.9,63.6,29.60,North,0,0.0,0.0,68,0.00,,,0.00,WUHU216HW,2013-08-14 18:19:00,
2013-08-14 11:24:00,75.2,63.9,29.60,North,0,0.0,0.0,68,0.00,,,0.00,WUHU216HW,2013-08-14 18:24:00,
2013-08-14 11:29:00,76.0,64.2,29.60,North,0,0.0,0.0,67,0.00,,,0.00,WUHU216HW,2013-08-14 18:29:00,
2013-08-14 11:34:00,76.3,63.2,29.60,North,0,0.0,0.0,64,0.00,,,0.00,WUHU216HW,2013-08-14 18:34:00,
2013-08-14 11:39:00,76.7,63.5,29.60,North,0,0.0,0.0,64,0.00,,,0.00,WUHU216HW,2013-08-14 18:39:00,
2013-08-14 11:44:00,77.2,63.2,29.60,North,0,0.0,0.0,62,0.00,,,0.00,WUHU216HW,2013-08-14 18:44:00,
2013-08-14 11:50:00,77.6,64.0,29.59,North,0,0.0,0.0,63,0.00,,,0.00,WUHU216HW,2013-08-14 18:50:00,
2013-08-14 11:55:00,78.1,64.1,29.59,North,0,0.0,0.0,62,0.00,,,0.00,WUHU216HW,2013-08-14 18:55:00,
2013-08-14 11:59:00,78.5,64.5,29.59,North,0,0.0,0.0,62,0.00,,,0.00,WUHU216HW,2013-08-14 18:59:00,
2013-08-14 12:05:00,78.8,62.4,29.59,North,0,0.0,0.0,57,0.00,,,0.00,WUHU216HW,2013-08-14 19:05:00,
2013-08-14 12:12:00,78.3,63.4,29.59,North,0,0.0,0.0,60,0.00,,,0.00,WUHU216HW,2013-08-14 19:12:00,
2013-08-14 12:17:00,78.5,63.5,29.59,North,0,0.0,0.0,60,0.00,,,0.00,WUHU216HW,2013-08-14 19:17:00,
2013-08-14 12:22:00,78.5,62.5,29.59,North,0,0.0,0.0,58,0.00,,,0.00,WUHU216HW,2013-08-14 19:22:00,
2013-08-14 12:28:00,78.1,62.2,29.59,North,0,0.0,0.0,58,0.00,,,0.00,WUHU216HW,2013-08-14 19:28:00,
2013-08-14 12:33:00,78.1,62.6,29.59,North,0,0.0,0.0,59,0.00,,,0.00,WUHU216HW,2013-08-14 19:33:00,
2013-08-14 12:38:00,78.1,62.6,29.60,North,0,0.0,0.0,59,0.00,,,0.00,WUHU216HW,2013-08-14 19:38:00,
2013-08-14 12:43:00,78.3,63.4,29.60,North,0,0.0,0.0,60,0.00,,,0.00,WUHU216HW,2013-08-14 19:43:00,
2013-08-14 12:48:00,78.8,63.4,29.60,North,0,0.0,0.0,59,0.00,,,0.00,WUHU216HW,2013-08-14 19:48:00,
2013-08-14 12:53:00,79.0,63.5,29.60,North,0,0.0,0.0,59,0.00,,,0.00,WUHU216HW,2013-08-14 19:53:00,
2013-08-14 12:58:00,79.2,63.2,29.60,North,0,0.0,0.0,58,0.00,,,0.00,WUHU216HW,2013-08-14 19:58:00,
2013-08-14 13:03:00,79.4,62.3,29.60,North,0,0.0,0.0,56,0.00,,,0.00,WUHU216HW,2013-08-14 20:03:00,
2013-08-14 13:08:00,79.2,63.2,29.59,North,0,0.0,0.0,58,0.00,,,0.00,WUHU216HW,2013-08-14 20:08:00,
2013-08-14 13:13:00,79.6,63.6,29.59,North,0,0.0,0.0,58,0.00,,,0.00,WUHU216HW,2013-08-14 20:13:00,
2013-08-14 13:18:00,80.3,63.6,29.59,North,0,0.0,0.0,57,0.00,,,0.00,WUHU216HW,2013-08-14 20:18:00,
2013-08-14 13:24:00,81.5,64.3,29.59,North,0,0.0,0.0,56,0.00,,,0.00,WUHU216HW,2013-08-14 20:24:00,
2013-08-14 13:29:00,82.1,63.2,29.59,North,0,0.0,0.0,53,0.00,,,0.00,WUHU216HW,2013-08-14 20:29:00,
2013-08-14 13:34:00,82.4,63.5,29.59,North,0,0.0,0.0,53,0.00,,,0.00,WUHU216HW,2013-08-14 20:34:00,
2013-08-14 13:40:00,82.4,63.5,29.59,North,0,0.0,0.0,53,0.00,,,0.00,WUHU216HW,2013-08-14 20:40:00,
2013-08-14 13:45:00,83.0,63.6,29.58,North,0,0.0,0.0,52,0.00,,,0.00,WUHU216HW,2013-08-14 20:45:00,
2013-08-14 13:50:00,83.3,63.9,29.58,North,0,0.0,0.0,52,0.00,,,0.00,WUHU216HW,2013-08-14 20:50:00,
2013-08-14 13:55:00,83.7,63.2,29.58,North,0,0.0,0.0,50,0.00,,,0.00,WUHU216HW,2013-08-14 20:55:00,
2013-08-14 14:00:00,83.9,63.4,29.59,North,0,0.0,0.0,50,0.00,,,0.00,WUHU216HW,2013-08-14 21:00:00,
2013-08-14 14:06:00,84.2,63.1,29.58,North,0,0.0,0.0,49,0.00,,,0.00,WUHU216HW,2013-08-14 21:06:00,
2013-08-14 14:11:00,84.2,63.1,29.58,North,0,0.0,0.0,49,0.00,,,0.00,WUHU216HW,2013-08-14 21:11:00,
2013-08-14 14:15:00,84.6,64.5,29.58,North,0,0.0,0.0,51,0.00,,,0.00,WUHU216HW,2013-08-14 21:15:00,
2013-08-14 14:21:00,85.0,64.4,29.58,North,0,0.0,0.0,50,0.00,,,0.00,WUHU216HW,2013-08-14 21:21:00,
2013-08-14 14:26:00,84.8,62.3,29.58,North,0,0.0,0.0,47,0.00,,,0.00,WUHU216HW,2013-08-14 21:26:00,
2013-08-14 14:31:00,84.2,61.8,29.58,North,0,0.0,0.0,47,0.00,,,0.00,WUHU216HW,2013-08-14 21:31:00,
2013-08-14 14:36:00,83.7,61.3,29.58,North,0,0.0,0.0,47,0.00,,,0.00,WUHU216HW,2013-08-14 21:36:00,
2013-08-14 14:41:00,83.7,62.6,29.58,North,0,0.0,0.0,49,0.00,,,0.00,WUHU216HW,2013-08-14 21:41:00,
2013-08-14 14:45:00,84.4,63.3,29.58,North,0,0.0,0.0,49,0.00,,,0.00,WUHU216HW,2013-08-14 21:45:00,
2013-08-14 14:50:00,85.1,62.6,29.58,North,0,0.0,0.0,47,0.00,,,0.00,WUHU216HW,2013-08-14 21:50:00,
2013-08-14 14:55:00,85.3,63.5,29.58,North,0,0.0,0.0,48,0.00,,,0.00,WUHU216HW,2013-08-14 21:55:00,
2013-08-14 15:01:00,85.3,63.5,29.58,North,0,0.0,0.0,48,0.00,,,0.00,WUHU216HW,2013-08-14 22:01:00,
2013-08-14 15:06:00,85.0,61.8,29.58,North,0,0.0,0.0,46,0.00,,,0.00,WUHU216HW,2013-08-14 22:06:00,
2013-08-14 15:11:00,84.4,62.0,29.58,North,0,0.0,0.0,47,0.00,,,0.00,WUHU216HW,2013-08-14 22:11:00,
2013-08-14 15:16:00,84.1,61.7,29.58,North,0,0.0,0.0,47,0.00,,,0.00,WUHU216HW,2013-08-14 22:16:00,
2013-08-14 15:21:00,83.9,60.8,29.58,North,0,0.0,0.0,46,0.00,,,0.00,WUHU216HW,2013-08-14 22:21:00,
2013-08-14 15:26:00,83.9,62.1,29.58,North,0,0.0,0.0,48,0.00,,,0.00,WUHU216HW,2013-08-14 22:26:00,
2013-08-14 15:31:00,83.9,60.8,29.58,North,0,0.0,0.0,46,0.00,,,0.00,WUHU216HW,2013-08-14 22:31:00,
2013-08-14 15:36:00,83.9,61.5,29.59,North,0,0.0,0.0,47,0.00,,,0.00,WUHU216HW,2013-08-14 22:36:00,
2013-08-14 15:41:00,83.9,61.5,29.59,North,0,0.0,0.0,47,0.00,,,0.00,WUHU216HW,2013-08-14 22:41:00,
2013-08-14 15:46:00,83.9,61.5,29.59,North,0,0.0,0.0,47,0.00,,,0.00,WUHU216HW,2013-08-14 22:46:00,
2013-08-14 15:51:00,83.7,61.3,29.59,North,0,0.0,0.0,47,0.00,,,0.00,WUHU216HW,2013-08-14 22:51:00,
2013-08-14 15:56:00,83.5,61.7,29.59,North,0,0.0,0.0,48,0.00,,,0.00,WUHU216HW,2013-08-14 22:56:00,
2013-08-14 16:01:00,83.5,61.7,29.60,North,0,0.0,0.0,48,0.00,,,0.00,WUHU216HW,2013-08-14 23:01:00,
2013-08-14 16:06:00,83.5,61.1,29.59,North,0,0.0,0.0,47,0.00,,,0.00,WUHU216HW,2013-08-14 23:06:00,
2013-08-14 16:11:00,83.7,61.3,29.59,North,0,0.0,0.0,47,0.00,,,0.00,WUHU216HW,2013-08-14 23:11:00,
2013-08-14 16:16:00,83.7,61.3,29.60,North,0,0.0,0.0,47,0.00,,,0.00,WUHU216HW,2013-08-14 23:16:00,
2013-08-14 16:21:00,83.5,59.2,29.60,North,0,0.0,0.0,44,0.00,,,0.00,WUHU216HW,2013-08-14 23:21:00,
2013-08-14 16:26:00,83.2,59.0,29.60,North,0,0.0,0.0,44,0.00,,,0.00,WUHU216HW,2013-08-14 23:26:00,
2013-08-14 16:31:00,83.0,59.4,29.60,North,0,0.0,0.0,45,0.00,,,0.00,WUHU216HW,2013-08-14 23:31:00,
2013-08-14 16:36:00,82.8,59.2,29.59,North,0,0.0,0.0,45,0.00,,,0.00,WUHU216HW,2013-08-14 23:36:00,
2013-08-14 16:41:00,82.6,59.7,29.59,North,0,0.0,0.0,46,0.00,,,0.00,WUHU216HW,2013-08-14 23:41:00,
2013-08-14 16:46:00,82.6,59.7,29.59,North,0,0.0,0.0,46,0.00,,,0.00,WUHU216HW,2013-08-14 23:46:00,
2013-08-14 16:51:00,82.4,59.5,29.59,North,0,0.0,0.0,46,0.00,,,0.00,WUHU216HW,2013-08-14 23:51:00,
2013-08-14 16:56:00,82.4,59.5,29.59,North,0,0.0,0.0,46,0.00,,,0.00,WUHU216HW,2013-08-14 23:56:00,
2013-08-14 17:01:00,82.3,59.3,29.58,North,0,0.0,0.0,46,0.00,,,0.00,WUHU216HW,2013-08-15 00:01:00,
2013-08-14 17:06:00,82.1,59.1,29.59,North,0,0.0,0.0,46,0.00,,,0.00,WUHU216HW,2013-08-15 00:06:00,
2013-08-14 17:11:00,81.7,59.4,29.59,North,0,0.0,0.0,47,0.00,,,0.00,WUHU216HW,2013-08-15 00:11:00,
2013-08-14 17:16:00,81.5,59.3,29.59,North,0,0.0,0.0,47,0.00,,,0.00,WUHU216HW,2013-08-15 00:16:00,
2013-08-14 17:21:00,81.2,59.0,29.59,North,0,0.0,0.0,47,0.00,,,0.00,WUHU216HW,2013-08-15 00:21:00,
2013-08-14 17:26:00,81.0,59.4,29.59,North,0,0.0,0.0,48,0.00,,,0.00,WUHU216HW,2013-08-15 00:26:00,
2013-08-14 17:31:00,80.5,59.5,29.60,North,0,0.0,0.0,49,0.00,,,0.00,WUHU216HW,2013-08-15 00:31:00,
2013-08-14 17:36:00,80.1,59.9,29.59,North,0,0.0,0.0,50,0.00,,,0.00,WUHU216HW,2013-08-15 00:36:00,
2013-08-14 17:41:00,79.2,59.5,29.60,North,0,0.0,0.0,51,0.00,,,0.00,WUHU216HW,2013-08-15 00:41:00,
2013-08-14 17:46:00,78.7,59.6,29.60,North,0,0.0,0.0,52,0.00,,,0.00,WUHU216HW,2013-08-15 00:46:00,
2013-08-14 17:51:00,77.9,58.9,29.60,North,0,0.0,0.0,52,0.00,,,0.00,WUHU216HW,2013-08-15 00:51:00,
2013-08-14 17:56:00,77.6,59.0,29.61,North,0,0.0,0.0,53,0.00,,,0.00,WUHU216HW,2013-08-15 00:56:00,
2013-08-14 18:01:00,77.4,59.4,29.61,North,0,0.0,0.0,54,0.00,,,0.00,WUHU216HW,2013-08-15 01:01:00,
2013-08-14 18:06:00,77.2,59.2,29.61,North,0,0.0,0.0,54,0.00,,,0.00,WUHU216HW,2013-08-15 01:06:00,
2013-08-14 18:11:00,77.0,59.6,29.62,North,0,0.0,0.0,55,0.00,,,0.00,WUHU216HW,2013-08-15 01:11:00,
2013-08-14 18:16:00,76.9,60.0,29.62,North,0,0.0,0.0,56,0.00,,,0.00,WUHU216HW,2013-08-15 01:16:00,
2013-08-14 18:21:00,76.7,59.8,29.62,North,0,0.0,0.0,56,0.00,,,0.00,WUHU216HW,2013-08-15 01:21:00,
2013-08-14 18:26:00,76.3,59.9,29.62,North,0,0.0,0.0,57,0.00,,,0.00,WUHU216HW,2013-08-15 01:26:00,
2013-08-14 18:31:00,76.0,60.1,29.62,North,0,0.0,0.0,58,0.00,,,0.00,WUHU216HW,2013-08-15 01:31:00,
2013-08-14 18:36:00,75.6,59.8,29.62,North,0,0.0,0.0,58,0.00,,,0.00,WUHU216HW,2013-08-15 01:36:00,
2013-08-14 18:41:00,75.4,60.1,29.62,North,0,0.0,0.0,59,0.00,,,0.00,WUHU216HW,2013-08-15 01:41:00,
2013-08-14 18:46:00,75.2,59.9,29.62,North,0,0.0,0.0,59,0.00,,,0.00,WUHU216HW,2013-08-15 01:46:00,
2013-08-14 18:51:00,75.1,59.8,29.62,North,0,0.0,0.0,59,0.00,,,0.00,WUHU216HW,2013-08-15 01:51:00,
2013-08-14 18:56:00,74.9,59.6,29.62,North,0,0.0,0.0,59,0.00,,,0.00,WUHU216HW,2013-08-15 01:56:00,
2013-08-14 19:01:00,74.9,60.1,29.62,North,0,0.0,0.0,60,0.00,,,0.00,WUHU216HW,2013-08-15 02:01:00,
2013-08-14 19:06:00,74.5,59.8,29.62,North,0,0.0,0.0,60,0.00,,,0.00,WUHU216HW,2013-08-15 02:06:00,
2013-08-14 19:11:00,74.2,59.4,29.62,North,0,0.0,0.0,60,0.00,,,0.00,WUHU216HW,2013-08-15 02:11:00,
2013-08-14 19:16:00,74.0,59.7,29.62,North,0,0.0,0.0,61,0.00,,,0.00,WUHU216HW,2013-08-15 02:16:00,
2013-08-14 19:21:00,73.8,59.5,29.62,North,0,0.0,0.0,61,0.00,,,0.00,WUHU216HW,2013-08-15 02:21:00,
2013-08-14 19:26:00,73.6,59.8,29.62,North,0,0.0,0.0,62,0.00,,,0.00,WUHU216HW,2013-08-15 02:26:00,
2013-08-14 19:31:00,73.4,59.6,29.62,North,0,0.0,0.0,62,0.00,,,0.00,WUHU216HW,2013-08-15 02:31:00,
2013-08-14 19:36:00,73.3,59.9,29.63,North,0,0.0,0.0,63,0.00,,,0.00,WUHU216HW,2013-08-15 02:36:00,
2013-08-14 19:41:00,73.1,59.7,29.63,North,0,0.0,0.0,63,0.00,,,0.00,WUHU216HW,2013-08-15 02:41:00,
2013-08-14 19:46:00,72.9,59.9,29.63,North,0,0.0,0.0,64,0.00,,,0.00,WUHU216HW,2013-08-15 02:46:00,
2013-08-14 19:51:00,72.7,60.2,29.63,North,0,0.0,0.0,65,0.00,,,0.00,WUHU216HW,2013-08-15 02:51:00,
2013-08-14 19:56:00,72.4,60.0,29.63,North,0,0.0,0.0,65,0.00,,,0.00,WUHU216HW,2013-08-15 02:56:00,
2013-08-14 20:02:00,72.4,60.3,29.64,North,0,0.0,0.0,66,0.00,,,0.00,WUHU216HW,2013-08-15 03:02:00,
2013-08-14 20:07:00,72.0,60.0,29.64,North,0,0.0,0.0,66,0.00,,,0.00,WUHU216HW,2013-08-15 03:07:00,
2013-08-14 20:12:00,71.8,60.7,29.64,North,0,0.0,0.0,68,0.00,,,0.00,WUHU216HW,2013-08-15 03:12:00,
2013-08-14 20:17:00,71.5,60.0,29.64,North,0,0.0,0.0,67,0.00,,,0.00,WUHU216HW,2013-08-15 03:17:00,
2013-08-14 20:22:00,71.3,60.1,29.63,North,0,0.0,0.0,68,0.00,,,0.00,WUHU216HW,2013-08-15 03:22:00,
2013-08-14 20:27:00,70.9,60.2,29.64,North,0,0.0,0.0,69,0.01,,,0.01,WUHU216HW,2013-08-15 03:27:00,
2013-08-14 20:32:00,70.7,60.5,29.64,North,0,0.0,0.0,70,0.01,,,0.01,WUHU216HW,2013-08-15 03:32:00,
2013-08-14 20:37:00,70.4,60.5,29.64,North,0,0.0,0.0,71,0.01,,,0.01,WUHU216HW,2013-08-15 03:37:00,
2013-08-14 20:42:00,70.2,60.3,29.64,North,0,0.0,0.0,71,0.01,,,0.01,WUHU216HW,2013-08-15 03:42:00,
2013-08-14 20:47:00,69.8,60.3,29.64,North,0,0.0,0.0,72,0.01,,,0.01,WUHU216HW,2013-08-15 03:47:00,
2013-08-14 20:52:00,69.7,60.2,29.64,North,0,0.0,0.0,72,0.01,,,0.01,WUHU216HW,2013-08-15 03:52:00,
2013-08-14 20:57:00,69.5,60.4,29.64,North,0,0.0,0.0,73,0.01,,,0.01,WUHU216HW,2013-08-15 03:57:00,
2013-08-14 21:01:00,69.5,60.8,29.64,North,0,0.0,0.0,74,0.01,,,0.01,WUHU216HW,2013-08-15 04:01:00,
2013-08-14 21:06:00,69.1,60.5,29.64,North,0,0.0,0.0,74,0.01,,,0.01,WUHU216HW,2013-08-15 04:06:00,
2013-08-14 21:11:00,69.1,60.5,29.64,North,0,0.0,0.0,74,0.01,,,0.01,WUHU216HW,2013-08-15 04:11:00,
2013-08-14 21:16:00,68.9,60.7,29.64,North,0,0.0,0.0,75,0.01,,,0.01,WUHU216HW,2013-08-15 04:16:00,
2013-08-14 21:21:00,68.8,60.5,29.63,North,0,0.0,0.0,75,0.01,,,0.01,WUHU216HW,2013-08-15 04:21:00,
2013-08-14 21:26:00,68.8,60.5,29.64,North,0,0.0,0.0,75,0.00,,,0.01,WUHU216HW,2013-08-15 04:26:00,
2013-08-14 21:31:00,68.8,60.8,29.63,North,0,0.0,0.0,76,0.00,,,0.01,WUHU216HW,2013-08-15 04:31:00,
2013-08-14 21:36:00,68.8,60.8,29.63,North,0,0.0,0.0,76,0.00,,,0.01,WUHU216HW,2013-08-15 04:36:00,
2013-08-14 21:41:00,68.6,60.8,29.63,North,0,0.0,0.0,76,0.00,,,0.01,WUHU216HW,2013-08-15 04:41:00,
2013-08-14 21:46:00,68.6,60.8,29.63,North,0,0.0,0.0,76,0.00,,,0.01,WUHU216HW,2013-08-15 04:46:00,
2013-08-14 21:51:00,68.6,60.8,29.63,North,0,0.0,0.0,76,0.00,,,0.01,WUHU216HW,2013-08-15 04:51:00,
2013-08-14 21:56:00,68.4,60.9,29.63,North,0,0.0,0.0,77,0.00,,,0.01,WUHU216HW,2013-08-15 04:56:00,
2013-08-14 22:01:00,68.4,60.9,29.62,North,0,0.0,0.0,77,0.00,,,0.01,WUHU216HW,2013-08-15 05:01:00,
2013-08-14 22:06:00,68.4,60.9,29.62,North,0,0.0,0.0,77,0.00,,,0.01,WUHU216HW,2013-08-15 05:06:00,
2013-08-14 22:11:00,68.4,61.3,29.62,North,0,0.0,0.0,78,0.00,,,0.01,WUHU216HW,2013-08-15 05:11:00,
2013-08-14 22:16:00,68.2,60.8,29.62,North,0,0.0,0.0,77,0.00,,,0.01,WUHU216HW,2013-08-15 05:16:00,
2013-08-14 22:21:00,68.2,60.8,29.62,North,0,0.0,0.0,77,0.00,,,0.01,WUHU216HW,2013-08-15 05:21:00,
2013-08-14 22:26:00,68.2,61.1,29.63,North,0,0.0,0.0,78,0.00,,,0.01,WUHU216HW,2013-08-15 05:26:00,
2013-08-14 22:31:00,68.2,61.9,29.63,North,0,0.0,0.0,80,0.00,,,0.01,WUHU216HW,2013-08-15 05:31:00,
2013-08-14 22:36:00,68.0,61.4,29.63,North,0,0.0,0.0,79,0.00,,,0.01,WUHU216HW,2013-08-15 05:36:00,
2013-08-14 22:41:00,68.0,61.0,29.63,North,0,0.0,0.0,78,0.00,,,0.01,WUHU216HW,2013-08-15 05:41:00,
2013-08-14 22:46:00,68.0,61.0,29.62,North,0,0.0,0.0,78,0.00,,,0.01,WUHU216HW,2013-08-15 05:46:00,
2013-08-14 22:51:00,68.0,61.4,29.63,North,0,0.0,0.0,79,0.00,,,0.01,WUHU216HW,2013-08-15 05:51:00,
2013-08-14 22:56:00,67.9,61.2,29.62,North,0,0.0,0.0,79,0.00,,,0.01,WUHU216HW,2013-08-15 05:56:00,
2013-08-14 23:01:00,67.9,61.2,29.63,North,0,0.0,0.0,79,0.00,,,0.01,WUHU216HW,2013-08-15 06:01:00,
2013-08-14 23:06:00,67.7,61.0,29.62,North,0,0.0,0.0,79,0.00,,,0.01,WUHU216HW,2013-08-15 06:06:00,
2013-08-14 23:11:00,67.5,61.2,29.62,North,0,0.0,0.0,80,0.00,,,0.01,WUHU216HW,2013-08-15 06:11:00,
2013-08-14 23:16:00,67.3,61.7,29.61,North,0,0.0,0.0,82,0.00,,,0.01,WUHU216HW,2013-08-15 06:16:00,
2013-08-14 23:21:00,67.1,61.2,29.61,North,0,0.0,0.0,81,0.00,,,0.01,WUHU216HW,2013-08-15 06:21:00,
2013-08-14 23:26:00,67.1,61.2,29.61,North,0,0.0,0.0,81,0.00,,,0.01,WUHU216HW,2013-08-15 06:26:00,
2013-08-14 23:31:00,67.1,61.2,29.61,North,0,0.0,0.0,81,0.00,,,0.01,WUHU216HW,2013-08-15 06:31:00,
2013-08-14 23:36:00,67.0,61.3,29.61,North,0,0.0,0.0,82,0.00,,,0.01,WUHU216HW,2013-08-15 06:36:00,
2013-08-14 23:41:00,66.8,61.1,29.61,North,0,0.0,0.0,82,0.00,,,0.01,WUHU216HW,2013-08-15 06:41:00,
2013-08-14 23:46:00,66.8,61.1,29.61,North,0,0.0,0.0,82,0.00,,,0.01,WUHU216HW,2013-08-15 06:46:00,
2013-08-14 23:51:00,66.8,61.1,29.61,North,0,0.0,0.0,82,0.00,,,0.01,WUHU216HW,2013-08-15 06:51:00,
2013-08-14 23:56:00,66.8,61.1,29.61,North,0,0.0,0.0,82,0.00,,,0.01,WUHU216HW,2013-08-15 06:56:00,